Retour au catalogue

STARLINK-4536

ActifCommunicationsVLEO
NORAD 53783·PAYLOAD·🇺🇸 United States

Lancé Sep 11, 2022 depuis Cape Canaveral Space Force Station

Loading…

Prochains Passages (prochaines 24 heures)

TLE

FraisSource: CelesTrak SupGP

Époque: Sep 15, 2026, 01:33 UTC

1 53783C 22111L   26258.06506944  .00683630  00000+0  20663-1 0  2581
2 53783  53.1606 141.4233 0001349  80.0907 259.7067 15.33332172    15

Suivez STARLINK-4536 en temps réel avec AllMySat

Download on the App Store